User: anonymous   Login
Location: Johnson City
(36.3130°N, 82.3540°W)
Time: 05:37:11
(UTC-05:00)
Language:

N. Korean satellite - Orbit

View from above orbital plane
View from above orbital plane
View from above satellite
View from above satellite

Ground track
Ground track

The orbit data is extracted from the following two-line orbital elements,

1 39026U 12072A   22016.94640431  .00010815  00000-0  34438-3 0  9994
2 39026  97.2591  10.0442 0033198 345.9079  14.1233 15.32193028505690
Epoch (UTC): 16 January 2022 22:42:49
Eccentricity: 0.0033198
inclination: 97.2591°
perigee height: 446 km
apogee height: 492 km
right ascension of ascending node: 10.0442°
argument of perigee: 345.9079°
revolutions per day: 15.32193028
mean anomaly at epoch: 14.1233°
orbit number at epoch: 50569

The dashed part of the orbit path shows where the satellite is in the earth's shadow,  

DLR